TimeCDT,TemperatureF,Dew PointF,Humidity,Sea Level PressureIn,VisibilityMPH,Wind Direction,Wind SpeedMPH,Gust SpeedMPH,PrecipitationIn,Events,Conditions,WindDirDegrees,DateUTC
12:01 AM,64.4,62.6,94,29.85,1.0,Calm,Calm,-,N/A,,Mist,0,2012-09-18 05:01:00
12:08 AM,64.4,64.4,100,29.85,0.5,Calm,Calm,-,N/A,Fog,Fog,0,2012-09-18 05:08:00
12:42 AM,64.4,62.6,94,29.85,0.2,Calm,Calm,-,N/A,Fog,Fog,0,2012-09-18 05:42:00
12:49 AM,64.4,62.6,94,29.85,1.2,Calm,Calm,-,N/A,,Overcast,0,2012-09-18 05:49:00
12:53 AM,64.0,63.0,96,29.83,4.0,Calm,Calm,-,N/A,,Mostly Cloudy,0,2012-09-18 05:53:00
1:02 AM,62.6,62.6,100,29.85,1.8,NW,3.5,-,N/A,,Mostly Cloudy,320,2012-09-18 06:02:00
1:19 AM,64.4,64.4,100,29.84,0.5,Calm,Calm,-,N/A,Fog,Fog,0,2012-09-18 06:19:00
1:38 AM,64.4,62.6,94,29.85,0.2,Calm,Calm,-,N/A,Fog,Fog,0,2012-09-18 06:38:00
1:53 AM,64.0,63.0,96,29.84,0.2,Calm,Calm,-,N/A,Fog,Fog,0,2012-09-18 06:53:00
2:24 AM,62.6,62.6,100,29.86,0.8,Calm,Calm,-,N/A,,Mist,0,2012-09-18 07:24:00
2:31 AM,64.4,62.6,94,29.87,2.5,Calm,Calm,-,N/A,,Mostly Cloudy,0,2012-09-18 07:31:00
2:38 AM,62.6,62.6,100,29.87,5.0,Calm,Calm,-,N/A,,Mostly Cloudy,0,2012-09-18 07:38:00
2:46 AM,62.6,62.6,100,29.87,1.8,Calm,Calm,-,N/A,,Partly Cloudy,0,2012-09-18 07:46:00
2:53 AM,63.0,62.1,97,29.86,0.5,Calm,Calm,-,N/A,Fog,Fog,0,2012-09-18 07:53:00
3:17 AM,64.4,62.6,94,29.88,1.8,Calm,Calm,-,N/A,,Overcast,0,2012-09-18 08:17:00
3:25 AM,64.4,62.6,94,29.88,3.0,Calm,Calm,-,N/A,,Overcast,0,2012-09-18 08:25:00
3:53 AM,63.0,62.1,97,29.87,9.0,Calm,Calm,-,N/A,,Partly Cloudy,0,2012-09-18 08:53:00
4:14 AM,62.6,62.6,100,29.87,1.5,Calm,Calm,-,N/A,,Clear,0,2012-09-18 09:14:00
4:23 AM,62.6,62.6,100,29.87,0.5,Calm,Calm,-,N/A,Fog,Fog,0,2012-09-18 09:23:00
4:31 AM,62.6,60.8,94,29.87,0.5,Calm,Calm,-,N/A,Fog,Fog,0,2012-09-18 09:31:00
4:48 AM,62.6,62.6,100,29.87,2.0,Calm,Calm,-,N/A,,Scattered Clouds,0,2012-09-18 09:48:00
4:50 AM,62.6,62.6,100,29.87,5.0,Calm,Calm,-,N/A,,Mostly Cloudy,0,2012-09-18 09:50:00
4:53 AM,62.1,61.0,96,29.87,3.0,Calm,Calm,-,N/A,,Mostly Cloudy,0,2012-09-18 09:53:00
4:55 AM,62.6,60.8,94,29.88,1.8,Calm,Calm,-,N/A,,Mostly Cloudy,0,2012-09-18 09:55:00
5:05 AM,62.6,60.8,94,29.88,0.8,Calm,Calm,-,N/A,,Mist,0,2012-09-18 10:05:00
5:09 AM,62.6,60.8,94,29.88,1.2,Calm,Calm,-,N/A,,Scattered Clouds,0,2012-09-18 10:09:00
5:16 AM,62.6,60.8,94,29.89,1.2,Calm,Calm,-,N/A,,Mostly Cloudy,0,2012-09-18 10:16:00
5:25 AM,62.6,60.8,94,29.89,0.5,Calm,Calm,-,N/A,Fog,Fog,0,2012-09-18 10:25:00
5:32 AM,60.8,60.8,100,29.89,0.2,Calm,Calm,-,N/A,Fog,Fog,0,2012-09-18 10:32:00
5:45 AM,60.8,60.8,100,29.89,1.0,Calm,Calm,-,N/A,,Mist,0,2012-09-18 10:45:00
5:53 AM,60.1,60.1,100,29.88,0.5,Calm,Calm,-,N/A,Fog,Fog,0,2012-09-18 10:53:00
6:31 AM,62.6,60.8,94,29.90,2.0,Calm,Calm,-,N/A,,Overcast,0,2012-09-18 11:31:00
6:41 AM,62.6,60.8,94,29.90,5.0,Calm,Calm,-,N/A,,Mostly Cloudy,0,2012-09-18 11:41:00
6:53 AM,62.1,61.0,96,29.89,6.0,Calm,Calm,-,N/A,,Scattered Clouds,0,2012-09-18 11:53:00
7:53 AM,63.0,63.0,100,29.91,6.0,Calm,Calm,-,N/A,,Mostly Cloudy,0,2012-09-18 12:53:00
8:53 AM,68.0,64.9,90,29.95,7.0,Calm,Calm,-,N/A,,Overcast,0,2012-09-18 13:53:00
9:12 AM,68.0,64.4,88,29.98,8.0,NNE,4.6,-,N/A,,Overcast,20,2012-09-18 14:12:00
9:37 AM,68.0,62.6,83,29.99,10.0,North,4.6,-,N/A,,Overcast,10,2012-09-18 14:37:00
9:53 AM,69.1,63.0,81,29.98,10.0,NNE,6.9,-,N/A,,Mostly Cloudy,20,2012-09-18 14:53:00
10:31 AM,69.8,60.8,73,30.00,10.0,NNE,9.2,19.6,N/A,,Mostly Cloudy,20,2012-09-18 15:31:00
10:53 AM,72.0,61.0,68,30.00,10.0,North,8.1,-,N/A,,Overcast,10,2012-09-18 15:53:00
12:53 PM,73.9,55.9,53,30.03,10.0,North,-9999.0,-,N/A,,Unknown,0,2012-09-18 17:53:00
1:53 PM,78.1,50.0,37,30.02,10.0,North,-9999.0,-,N/A,,Unknown,0,2012-09-18 18:53:00
2:53 PM,79.0,46.9,32,30.02,10.0,North,-9999.0,-,N/A,,Clear,0,2012-09-18 19:53:00
3:53 PM,79.0,44.1,29,30.01,10.0,North,-9999.0,-,N/A,,Clear,0,2012-09-18 20:53:00
4:53 PM,78.1,41.0,27,30.01,10.0,North,-9999.0,-,N/A,,Clear,0,2012-09-18 21:53:00
5:53 PM,77.0,39.9,26,30.01,10.0,North,-9999.0,-,N/A,,Clear,0,2012-09-18 22:53:00
6:53 PM,73.0,43.0,34,30.01,10.0,North,-9999.0,-,N/A,,Clear,0,2012-09-18 23:53:00
7:53 PM,62.1,52.0,70,30.02,10.0,North,-9999.0,-,N/A,,Clear,0,2012-09-19 00:53:00
8:53 PM,57.0,53.1,87,30.05,10.0,North,-9999.0,-,N/A,,Clear,0,2012-09-19 01:53:00
9:53 PM,55.9,52.0,87,30.07,10.0,North,-9999.0,-,N/A,,Clear,0,2012-09-19 02:53:00
10:53 PM,54.0,51.1,90,30.08,10.0,North,-9999.0,-,N/A,,Clear,0,2012-09-19 03:53:00
11:53 PM,52.0,51.1,97,30.09,9.0,North,-9999.0,-,N/A,,Clear,0,2012-09-19 04:53:00